Location: *
(46.1200°N, 11.2700°E)
Time: 14:53:30
(UTC+00:00)

Cosmos 1354 Rocket - Pass Details

Date: 02 March 2021
Orbit: 765 x 782 km, 74.0° (Epoch: 19 April)

Event Time Altitude Azimuth Distance (km) Brightness Sun altitude
Rises 18:54:40 0° 335° (NNW) 3,250 7.8 -20.1°
Reaches altitude 10° 18:57:04 10° 333° (NNW) 2,317 7.0 -20.5°
Maximum altitude 19:02:15 64° 253° (WSW) 848 4.4 -21.4°
Enters shadow 19:06:44 14° 174° (S) 2,042 6.0 -22.1°
